AirNav   Air Wisconsin pilot careers
 
 787 users online  

WV20 Wetzel County Hospital Heliport
New Martinsville, West Virginia, USA

GOING TO NEW MARTINSVILLE?


FAA INFORMATION EFFECTIVE 04 JANUARY 2018

Location

FAA Identifier: WV20
Lat/Long: 39-40-52.2800N / 080-50-55.3100W
39-40.871333N / 080-50.921833W
39.6811889 / -80.8486972
(estimated)
Elevation: 689 ft. / 210 m (estimated)
Variation: 07W (1990)
From city: 3 miles N of NEW MARTINSVILLE, WV
Time zone: UTC -5 (UTC -4 during Daylight Saving Time)
Zip code: 26624

Heliport Operations

Heliport use: Private use, MEDICAL USE ONLY.
Activation date: 03/1992
Control tower: no
ARTCC: CLEVELAND CENTER
FSS: ELKINS FLIGHT SERVICE STATION [703-724-4288]
Attendance: CONTINUOUS
Wind indicator: lighted
Segmented circle: no
Lights: FOR PERIMETER LGTS CALL 304-455-8100.
Beacon: white-green-yellow (heliport)
FOR ROTG BCN CALL 304-455-8100.

Heliport Communications

WX AWOS-3 at MPG (13 nm NE): 119.05 (304-845-2959)

Nearby radio navigation aids

VOR radial/distance  VOR name  Freq  Var
AIRr191/20.2BELLAIRE VOR/DME117.1007W
JPUr062/28.3PARKERSBURG VOR/DME108.6003W
HLGr207/37.0WHEELING VOR/DME112.2007W
CKBr318/37.2CLARKSBURG VOR/DME112.6004W

 
NDB name  Hdg/Dist  Freq  Var  ID
CADIZ174/34.223907WCFX -.-. ..-. -..-

Heliport Services

Runway Information

Helipad H1

Dimensions: 20 x 20 ft. / 6 x 6 m
Surface: concrete
Runway edge lights: PERIMETER LGTS.
Latitude: 39-40.871333N
Longitude: 080-50.921833W
Elevation: 689.0 ft.
Traffic pattern: leftleft

Heliport Ownership and Management from official FAA records

Ownership: Publicly-owned
Owner: WETZEL COUNTY HOSPITAL ASSOCIATION
3 EAST BENJAMIN DRIVE
NEW MARTINSVILLE, WV 26155
Phone 304-455-8000
Manager: TOM LANGSDORF
3 EAST BENJAMIN DRIVE
NEW MARTINSVILLE, WV 26155
Phone 304-455-8000
MICHAEL CONNERS 304-551-4083

Heliport Operational Statistics

Aircraft based on the field: 1
Helicopters: 1
    

Additional Remarks

HELIPAD OPERATOR AIR EVAC LIFETEAM (BASE78)
A52-H1 BLDG 175 FT WEST OF PAD; 20 FT PLINES 300 FT WEST OF PAD; 10 TREES 300 FT WEST OF PAD.

Instrument Procedures

There are no published instrument procedures at WV20.

Some nearby airports with instrument procedures:

KMPG - Marshall County Airport (13 nm NE)
4G5 - Monroe County Airport (13 nm NW)
2P7 - Alderman Airport (23 nm N)
6G5 - Barnesville-Bradfield Airport (25 nm NW)
KHLG - Wheeling Ohio County Airport (31 nm N)
 
Loc | Ops | Rwys | IFR | FBO | Links
Com | Nav | Svcs | Stats | Notes


 
Area around WV20 (Wetzel County Hospital Heliport)
 
Road maps at: MapQuest Bing Google
 
Aerial photo
No photo
 
Sectional chart

 
Airport distance calculator
Flying to Wetzel County Hospital Heliport? Find the distance to fly.

From to WV20

Sunrise and sunset
Times for 20-Jan-2018
 Local
(UTC-5)
 Zulu
(UTC)
Morning civil twilight07:1212:12
Sunrise07:4112:41
Sunset17:2822:28
Evening civil twilight17:5722:57

Current date and time
Zulu (UTC)  20-Jan-2018 13:52:24
Local (UTC-5)  20-Jan-2018 08:52:24
 
METAR
KHLG 
31nm N 
201253Z AUTO 22010KT 10SM CLR 01/M06 A3003 RMK AO2 SLP182 T00111061
KPKB 
33nm SW 
201253Z 20009KT 10SM CLR 03/M03 A3012 RMK AO2 SLP205 T00331033
KCKB 
37nm SE 
201253Z 21012KT 10SM FEW031 04/M02 A3010 RMK AO2 SLP195 T00441017
KAFJ 
37nm NE 
200856Z AUTO 21012G22KT 10SM CLR 03/M07 A3002 RMK AO2 SLP171 T00281072 50006
KCDI 
38nm NW 
201335Z AUTO 20006KT 10SM CLR 00/M05 A3007 RMK AO2 T00031055
KMGW 
43nm E 
201253Z 21007G16KT 10SM CLR 04/M03 A3008 RMK AO2 SLP193 T00391033
KW22 
49nm SE 
201335Z AUTO 22012G21KT 10SM OVC029 05/M01 A3011 RMK AO2
TAF
KHLG 
31nm N 
201140Z 2012/2112 22012G20KT P6SM SKC WS020/24045KT FM201400 22012G22KT P6SM SCT025 FM202200 24008KT P6SM BKN025 FM210000 23006KT P6SM OVC015
KPKB 
33nm SW 
201124Z 2012/2112 21008KT P6SM FEW200 FM201600 23007G16KT P6SM SCT035 FM202000 24007G16KT P6SM BKN030 FM202200 23005KT P6SM BKN015 FM210500 20004KT P6SM -RA OVC007
KCKB 
37nm SE 
201124Z 2012/2112 22009G16KT P6SM BKN035 FM201400 22008G17KT P6SM SCT040 FM201800 23010G18KT P6SM BKN035 FM202300 23007KT P6SM BKN025 FM210200 23006KT P6SM OVC025 FM210600 22004KT P6SM -RA BKN007
NOTAMs
Click for the latest NOTAMs
NOTAMs are issued by the DoD/FAA and will open in a separate window not controlled by AirNav.

 

 
 

Would you like to see your business listed on this page?

 If your business provides an interesting product or service to pilots, flight crews, aircraft, or users of the Wetzel County Hospital Heliport, you should consider listing it here.  To start the listing process, click on the button below
 
Add a business
 

Other Pages about Wetzel County Hospital Heliport

Update a link
 
Copyright © AirNav, LLC. All rights reserved. Privacy Policy  Contact